Location: Newark
(54.8972°N, 99.8189°W)
Time: 00:19:25
(UTC+00:00)

Transit 2A - Pass Details

Date: 16 November 2019
Orbit: 602 x 957 km, 66.7° (Epoch: 07 December)

Event Time Altitude Azimuth Distance (km) Brightness Sun altitude
Rises 00:21:14 0° 301° (WNW) 2,965 9.8 -14.8°
Reaches altitude 10° 00:24:12 10° 320° (NW) 2,011 8.6 -15.2°
Maximum altitude 00:27:21 18° 5° (N) 1,503 7.4 -15.6°
Enters shadow 00:28:52 16° 31° (NNE) 1,620 7.3 -15.8°
